User: anonymous   Login
Location: Unspecified
(0.0000°N, 0.0000°E)
Time: 01:27:08
(UTC+00:00)
Language:

50 SAT - Orbit

View from above orbital plane
View from above orbital plane
View from above satellite
View from above satellite

Ground track
Ground track

The orbit data is extracted from the following two-line orbital elements,

1 39436U 13066W   17265.84231631  .00028489  00000-0  65781-3 0  9991
2 39436  97.7133  16.8768 0008645  96.9209 263.3021 15.42464152211679
Epoch (UTC): 22 September 2017 20:12:56
Eccentricity: 0.0008645
inclination: 97.7133°
perigee height: 433 km
apogee height: 445 km
right ascension of ascending node: 16.8768°
argument of perigee: 96.9209°
revolutions per day: 15.42464152
mean anomaly at epoch: 263.3021°
orbit number at epoch: 21167

The dashed part of the orbit path shows where the satellite is in the earth's shadow,  

DLR